FW5172 Weather Reports


time (UTC)temp
C
wind
direction
speed
KPH
gust
KPH
rain 1hr
cm
rain 24hr
cm
rain mn
cm
humidity
%
barometer
mb
20260508210046 20 260 1.6 14.5 0.00 0.00 0.00 55 1016.0
20260508205548 20 188 3.2 14.5 0.00 0.00 0.00 55 1016.2
20260508205043 20 249 4.8 14.5 0.00 0.00 0.00 56 1016.1
20260508204542 20 183 1.6 11.3 0.00 0.00 0.00 56 1016.2
20260508204042 20 142 3.2 11.3 0.00 0.00 0.00 54 1016.3
20260508203541 20 147 0.0 12.9 0.00 0.00 0.00 54 1016.3
20260508203043 20 278 4.8 12.9 0.00 0.00 0.00 55 1016.2
20260508202540 20 271 1.6 19.3 0.00 0.00 0.00 55 1016.2
20260508202039 19 146 8.0 19.3 0.00 0.00 0.00 55 1016.3
20260508201537 20 219 8.0 19.3 0.00 0.00 0.00 53 1016.5
20260508201037 20 158 3.2 19.3 0.00 0.00 0.00 55 1016.5
20260508200536 20 141 4.8 19.3 0.00 0.00 0.00 53 1016.7
20260508200036 20 229 3.2 14.5 0.00 0.00 0.00 52 1016.6
20260508195538 20 224 1.6 11.3 0.00 0.00 0.00 53 1016.7
20260508195034 20 263 1.6 14.5 0.00 0.00 0.00 53 1016.6
20260508194538 20 118 8.0 16.1 0.00 0.00 0.00 51 1016.7
20260508194035 20 162 1.6 16.1 0.00 0.00 0.00 54 1017.0
20260508193532 20 103 6.4 14.5 0.00 0.00 0.00 52 1017.0
20260508193033 20 108 4.8 11.3 0.00 0.00 0.00 51 1017.1
20260508192534 20 208 1.6 9.7 0.00 0.00 0.00 51 1017.2
20260508192031 20 203 1.6 16.1 0.00 0.00 0.00 52 1017.2
20260508191535 20 195 3.2 16.1 0.00 0.00 0.00 54 1017.4
20260508191028 20 105 1.6 11.3 0.00 0.00 0.00 50 1017.5
20260508190527 20 163 1.6 17.7 0.00 0.00 0.00 52 1017.6
20260508190027 20 264 9.7 16.1 0.00 0.00 0.00 50 1017.6
20260508185526 20 236 4.8 14.5 0.00 0.00 0.00 49 1017.6
20260508185025 20 158 3.2 14.5 0.00 0.00 0.00 52 1017.6
20260508184525 20 145 1.6 16.1 0.00 0.00 0.00 50 1017.6
20260508184022 20 134 4.8 16.1 0.00 0.00 0.00 51 1017.8
20260508183522 20 200 3.2 17.7 0.00 0.00 0.00 50 1017.9
20260508183028 20 125 4.8 17.7 0.00 0.00 0.00 51 1017.9
20260508182519 20 243 6.4 17.7 0.00 0.00 0.00 51 1017.9
20260508182018 19 93 4.8 19.3 0.00 0.00 0.00 50 1018.0
20260508181517 19 150 6.4 19.3 0.00 0.00 0.00 52 1018.0
20260508181018 19 117 1.6 12.9 0.00 0.00 0.00 51 1018.1
20260508180517 19 113 4.8 11.3 0.00 0.00 0.00 50 1018.3
20260508180020 20 118 1.6 11.3 0.00 0.00 0.00 49 1018.5
20260508175513 19 234 4.8 11.3 0.00 0.00 0.00 54 1018.6
20260508175014 18 73 1.6 12.9 0.00 0.00 0.00 51 1018.6
20260508174512 18 145 3.2 11.3 0.00 0.00 0.00 52 1018.6
20260508174015 19 269 1.6 17.7 0.00 0.00 0.00 51 1018.6
20260508173509 18 290 6.4 14.5 0.00 0.00 0.00 51 1018.6
20260508173010 18 140 6.4 11.3 0.00 0.00 0.00 51 1018.7
20260508172511 18 240 3.2 9.7 0.00 0.00 0.00 53 1018.8
20260508172007 18 151 3.2 11.3 0.00 0.00 0.00 51 1018.9
20260508171503 18 231 3.2 16.1 0.00 0.00 0.00 54 1018.8
20260508171000 18 124 4.8 16.1 0.00 0.00 0.00 54 1018.9
20260508170600 18 68 4.8 11.3 0.00 0.00 0.00 50 1018.9
20260508170059 18 159 0.0 14.5 0.00 0.00 0.00 57 1019.1
20260508165558 18 161 4.8 17.7 0.00 0.00 0.00 55 1019.3
20260508165057 18 146 6.4 16.1 0.00 0.00 0.00 56 1019.4
20260508164557 18 281 1.6 8.0 0.00 0.00 0.00 58 1019.6
20260508164055 18 232 3.2 12.9 0.00 0.00 0.00 55 1019.6
20260508163554 18 253 3.2 12.9 0.00 0.00 0.00 60 1019.5
20260508163053 18 172 3.2 14.5 0.00 0.00 0.00 57 1019.6
20260508162553 18 101 6.4 14.5 0.00 0.00 0.00 56 1019.7
20260508162052 18 250 0.0 11.3 0.00 0.00 0.00 58 1019.9
20260508161557 18 216 1.6 8.0 0.00 0.00 0.00 58 1019.7
20260508161050 18 202 0.0 9.7 0.00 0.00 0.00 59 1019.9
20260508160551 18 133 1.6 9.7 0.00 0.00 0.00 62 1020.0
20260508160048 17 112 3.2 9.7 0.00 0.00 0.00 58 1020.1
20260508155547 18 150 0.0 9.7 0.00 0.00 0.00 59 1020.0
20260508155046 17 109 3.2 9.7 0.00 0.00 0.00 58 1020.1
20260508154604 17 258 0.0 9.7 0.00 0.00 0.00 59 1020.3
20260508154043 17 247 3.2 9.7 0.00 0.00 0.00 58 1020.3
20260508153542 17 122 0.0 8.0 0.00 0.00 0.00 61 1020.3
20260508153044 17 255 0.0 11.3 0.00 0.00 0.00 60 1020.4
20260508152541 17 243 0.0 8.0 0.00 0.00 0.00 61 1020.3
20260508152039 16 12 0.0 12.9 0.00 0.00 0.00 60 1020.3
20260508151538 16 316 6.4 12.9 0.00 0.00 0.00 60 1020.2
20260508151038 16 247 4.8 11.3 0.00 0.00 0.00 59 1020.4
20260508150537 16 281 3.2 11.3 0.00 0.00 0.00 60 1020.3
20260508150053 17 319 1.6 6.4 0.00 0.03 0.00 60 1020.4
20260508145535 16 158 0.0 3.2 0.00 0.03 0.00 62 1020.4
20260508145035 16 9 0.0 4.8 0.00 0.03 0.00 60 1020.5
20260508144532 16 266 0.0 4.8 0.00 0.03 0.00 61 1020.6
20260508144033 16 86 0.0 6.4 0.00 0.03 0.00 61 1020.5
20260508143531 16 158 3.2 8.0 0.00 0.03 0.00 61 1020.6
20260508143030 15 305 1.6 11.3 0.00 0.03 0.00 63 1020.6
20260508142527 15 323 6.4 11.3 0.00 0.03 0.00 60 1020.6
20260508142027 15 260 1.6 8.0 0.00 0.03 0.00 62 1020.7
20260508141529 15 328 0.0 4.8 0.00 0.03 0.00 62 1020.6
20260508141026 15 106 0.0 3.2 0.00 0.03 0.00 61 1020.6
20260508140524 15 42 0.0 4.8 0.00 0.03 0.00 60 1020.6
20260508140027 15 302 3.2 4.8 0.00 0.03 0.00 59 1020.7
20260508135523 15 226 0.0 1.6 0.00 0.03 0.00 64 1020.7
20260508135022 15 65 0.0 3.2 0.00 0.03 0.00 62 1020.7
20260508134520 15 220 0.0 3.2 0.00 0.03 0.00 61 1020.7
20260508134018 15 172 0.0 1.6 0.00 0.03 0.00 65 1020.8
20260508133519 14 269 0.0 1.6 0.00 0.03 0.00 67 1020.7
20260508133017 15 246 0.0 1.6 0.00 0.03 0.00 67 1020.8
20260508132515 14 251 0.0 3.2 0.00 0.03 0.00 68 1020.7
20260508132014 14 108 0.0 3.2 0.00 0.03 0.00 68 1020.7
20260508131512 14 133 0.0 1.6 0.00 0.03 0.00 72 1020.7
20260508131012 13 83 0.0 1.6 0.00 0.03 0.00 74 1020.7
20260508130508 13 338 0.0 1.6 0.00 0.03 0.00 73 1020.7
20260508130007 13 285 0.0 0.0 0.00 0.03 0.00 75 1020.7
20260508125506 13 118 0.0 0.0 0.00 0.03 0.00 78 1020.6
20260508125003 12 150 0.0 0.0 0.00 0.03 0.00 83 1020.6
20260508124601 12 238 0.0 0.0 0.00 0.03 0.00 83 1020.5
20260508124059 11 238 0.0 3.2 0.00 0.03 0.00 83 1020.5
20260508123558 11 288 0.0 3.2 0.00 0.03 0.00 83 1020.6
20260508123058 11 342 0.0 1.6 0.00 0.03 0.00 84 1020.5
20260508122555 11 341 0.0 0.0 0.00 0.03 0.00 86 1020.4
20260508122054 11 322 0.0 3.2 0.00 0.03 0.00 87 1020.5
20260508121553 10 322 0.0 4.8 0.00 0.03 0.00 86 1020.4
20260508121051 10 343 1.6 4.8 0.00 0.03 0.00 85 1020.3
20260508120550 10 36 0.0 3.2 0.00 0.03 0.00 86 1020.3
20260508120049 10 325 0.0 0.0 0.00 0.28 0.00 90 1020.3
20260508115548 10 134 0.0 0.0 0.00 0.28 0.00 92 1020.2
20260508115046 9 120 0.0 0.0 0.00 0.28 0.00 93 1020.1
20260508114544 8 120 0.0 0.0 0.00 0.28 0.00 95 1019.9
20260508114043 8 120 0.0 0.0 0.00 0.28 0.00 96 1019.8
20260508113544 7 119 0.0 0.0 0.00 0.28 0.00 96 1019.7
20260508113142 7 105 0.0 0.0 0.00 0.28 0.00 96 1019.7
20260508112539 7 248 0.0 0.0 0.00 0.28 0.00 98 1019.5
20260508112040 6 248 0.0 0.0 0.00 0.28 0.00 97 1019.4
20260508111538 6 248 0.0 0.0 0.00 0.28 0.00 98 1019.3
20260508111037 6 248 0.0 0.0 0.00 0.28 0.00 98 1019.2
20260508110535 6 248 0.0 0.0 0.00 0.28 0.00 98 1019.1
20260508110034 5 248 0.0 0.0 0.00 0.30 0.00 98 1019.0
20260508105533 5 248 0.0 0.0 0.00 0.30 0.00 98 1019.1
20260508105033 6 248 0.0 0.0 0.00 0.30 0.00 98 1019.0
20260508104533 6 248 0.0 0.0 0.00 0.30 0.00 98 1019.0
20260508104030 6 248 0.0 0.0 0.00 0.30 0.00 98 1018.8
20260508103529 6 248 0.0 1.6 0.00 0.30 0.00 98 1018.7
20260508103028 6 248 0.0 1.6 0.00 0.30 0.00 98 1018.5
20260508102527 6 248 0.0 0.0 0.00 0.30 0.00 98 1018.4
20260508102026 6 248 0.0 0.0 0.00 0.30 0.00 97 1018.3
20260508101525 6 248 0.0 0.0 0.00 0.30 0.00 97 1018.1
20260508101023 6 248 0.0 1.6 0.00 0.30 0.00 97 1018.0
20260508100521 6 248 0.0 1.6 0.00 0.30 0.00 97 1018.0
20260508100025 6 248 0.0 1.6 0.00 0.30 0.00 97 1018.0
20260508095520 6 220 0.0 0.0 0.00 0.30 0.00 97 1017.8
20260508095018 6 220 0.0 0.0 0.00 0.30 0.00 96 1017.8
20260508094519 6 220 0.0 1.6 0.00 0.30 0.00 96 1017.7
20260508094021 7 219 0.0 1.6 0.00 0.30 0.00 96 1017.8
20260508093514 7 261 0.0 1.6 0.00 0.30 0.00 96 1017.8
20260508093018 7 263 0.0 1.6 0.00 0.30 0.00 96 1017.8
20260508092513 7 243 0.0 0.0 0.00 0.30 0.00 96 1017.7
20260508092012 7 243 0.0 0.0 0.00 0.30 0.00 96 1017.6
20260508091512 7 243 0.0 0.0 0.00 0.30 0.00 96 1017.7
20260508091010 7 243 0.0 1.6 0.00 0.30 0.00 95 1017.8
20260508090509 7 234 0.0 1.6 0.00 0.30 0.00 95 1017.6
20260508090008 7 240 0.0 3.2 0.00 0.36 0.00 95 1017.5
20260508085507 7 295 0.0 1.6 0.00 0.36 0.00 94 1017.5
20260508085008 7 251 0.0 0.0 0.00 0.36 0.00 94 1017.5
20260508084504 8 257 0.0 1.6 0.00 0.36 0.00 94 1017.5
20260508084004 8 259 0.0 1.6 0.00 0.36 0.00 93 1017.3
20260508083503 8 250 0.0 0.0 0.00 0.36 0.00 92 1017.3
20260508083002 8 249 0.0 1.6 0.00 0.36 0.00 92 1017.4
20260508082502 8 254 0.0 1.6 0.00 0.36 0.00 92 1017.4
20260508082001 8 254 0.0 1.6 0.00 0.36 0.00 90 1017.2
20260508081600 8 254 0.0 1.6 0.00 0.36 0.00 89 1017.2
20260508081059 9 236 0.0 1.6 0.00 0.36 0.00 87 1017.2
20260508080559 10 285 0.0 1.6 0.00 0.36 0.00 86 1017.1
20260508080110 10 281 0.0 8.0 0.00 0.36 0.00 85 1017.1
20260508075556 10 329 1.6 9.7 0.00 0.36 0.00 85 1017.1
20260508075055 10 264 1.6 9.7 0.00 0.36 0.00 85 1017.1
20260508074603 10 4 1.6 9.7 0.00 0.36 0.00 87 1017.0
20260508074052 9 359 0.0 9.7 0.00 0.36 0.00 88 1017.0
20260508073554 9 344 0.0 8.0 0.00 0.36 0.00 89 1016.8
20260508073056 9 16 0.0 4.8 0.00 0.36 0.00 90 1016.8
20260508072550 9 5 0.0 4.8 0.00 0.36 0.00 89 1016.7
20260508072047 9 341 1.6 8.0 0.00 0.36 0.00 90 1016.8
20260508071547 9 354 1.6 8.0 0.00 0.36 0.00 92 1016.7
20260508071040 8 345 4.8 8.0 0.00 0.36 0.00 97 1016.7
20260508070539 7 359 0.0 3.2 0.00 0.36 0.00 98 1016.7
20260508070039 7 350 0.0 3.2 0.00 0.36 0.00 98 1016.7
20260508065537 7 287 0.0 0.0 0.00 0.36 0.00 98 1016.7
20260508065037 7 286 0.0 1.6 0.00 0.36 0.00 97 1016.6
20260508064544 7 276 0.0 1.6 0.00 0.36 0.00 97 1016.7
20260508064035 7 231 0.0 1.6 0.00 0.36 0.00 97 1016.5
20260508063533 7 266 0.0 0.0 0.00 0.36 0.00 97 1016.6
20260508063032 7 267 0.0 0.0 0.00 0.36 0.00 98 1016.6
20260508062530 7 307 0.0 0.0 0.00 0.36 0.00 97 1016.5
20260508062030 7 302 0.0 1.6 0.00 0.36 0.00 97 1016.5
20260508061534 7 276 0.0 1.6 0.00 0.36 0.00 97 1016.5
20260508061028 7 261 0.0 1.6 0.00 0.36 0.00 97 1016.4
20260508060526 7 269 0.0 1.6 0.00 0.36 0.00 97 1016.5
20260508060026 7 240 0.0 0.0 0.00 0.48 0.00 97 1016.5
20260508055524 7 240 0.0 0.0 0.00 0.48 0.00 97 1016.6
20260508055023 7 240 0.0 0.0 0.00 0.48 0.00 97 1016.5
20260508054537 7 240 0.0 1.6 0.00 0.48 0.00 97 1016.5
20260508054122 7 240 0.0 1.6 0.00 0.48 0.00 97 1016.5
20260508053520 7 260 0.0 1.6 0.00 0.48 0.00 96 1016.4
20260508053020 7 260 0.0 1.6 0.00 0.48 0.00 97 1016.6
20260508052518 7 251 0.0 0.0 0.00 0.48 0.00 96 1016.4
20260508052017 8 251 0.0 0.0 0.00 0.48 0.00 96 1016.4
20260508051515 8 250 0.0 1.6 0.00 0.48 0.00 96 1016.4
20260508051016 8 252 0.0 1.6 0.00 0.48 0.00 96 1016.4
20260508050512 8 252 0.0 1.6 0.00 0.48 0.00 96 1016.4
20260508050011 8 239 0.0 1.6 0.00 0.61 0.00 96 1016.3
20260508045510 8 201 0.0 1.6 0.00 0.61 0.00 96 1016.2
20260508045009 8 267 0.0 1.6 0.00 0.61 0.00 96 1016.2
20260508044509 8 262 0.0 1.6 0.00 0.61 0.00 96 1016.1
20260508044007 8 239 0.0 1.6 0.00 0.61 0.00 96 1016.0
20260508043506 8 176 0.0 1.6 0.00 0.61 0.00 95 1015.9
20260508043005 8 230 0.0 1.6 0.00 0.61 0.00 95 1016.0
20260508042504 8 141 0.0 1.6 0.00 0.61 0.00 95 1015.9
20260508042003 8 245 0.0 1.6 0.00 0.61 0.00 95 1016.0
20260508041504 8 262 0.0 3.2 0.00 0.61 0.00 95 1015.9
20260508041100 8 153 0.0 3.2 0.00 0.61 0.00 94 1015.8
20260508040559 8 237 0.0 1.6 0.00 0.61 0.00 94 1015.8
20260508035556 8 234 0.0 3.2 0.00 0.64 0.61 93 1015.9
20260508035055 9 257 0.0 3.2 0.00 0.64 0.61 93 1015.8
20260508034553 9 275 0.0 3.2 0.00 0.64 0.61 91 1015.9
20260508034051 10 245 0.0 0.0 0.00 0.64 0.61 90 1016.0
20260508033553 10 84 0.0 0.0 0.00 0.64 0.61 89 1015.9
20260508033050 10 84 0.0 0.0 0.00 0.64 0.61 88 1015.8
20260508032548 10 84 0.0 0.0 0.00 0.64 0.61 88 1015.8
20260508032047 10 321 0.0 0.0 0.00 0.64 0.61 89 1015.7
20260508031546 10 271 0.0 0.0 0.00 0.64 0.61 90 1015.9
20260508031045 10 125 0.0 0.0 0.00 0.64 0.61 89 1015.7
20260508030544 10 227 0.0 0.0 0.00 0.64 0.61 90 1015.7
20260508030051 10 226 0.0 0.0 0.00 0.66 0.61 90 1015.9
20260508025542 10 225 0.0 0.0 0.00 0.66 0.61 90 1015.7
20260508025142 10 255 0.0 0.0 0.00 0.66 0.61 89 1015.6
20260508024540 10 242 0.0 1.6 0.00 0.66 0.61 88 1015.6
20260508024037 10 276 0.0 1.6 0.00 0.66 0.61 88 1015.4
20260508023537 10 249 0.0 0.0 0.00 0.66 0.61 87 1015.5
20260508023034 10 236 0.0 0.0 0.00 0.66 0.61 86 1015.2
20260508022532 11 235 0.0 0.0 0.00 0.66 0.61 85 1015.1
20260508022031 11 207 0.0 0.0 0.00 0.66 0.61 84 1015.3
20260508021532 11 217 0.0 0.0 0.00 0.66 0.61 83 1015.1
20260508021030 11 259 0.0 1.6 0.00 0.66 0.61 81 1015.1
20260508020525 12 127 0.0 0.0 0.00 0.66 0.61 76 1015.1
20260508020023 12 94 0.0 1.6 0.00 0.71 0.61 75 1015.0
20260508015521 12 23 0.0 3.2 0.00 0.71 0.61 74 1015.0
20260508015021 13 27 0.0 4.8 0.00 0.71 0.61 73 1014.9
20260508014519 13 139 0.0 4.8 0.00 0.71 0.61 72 1014.6
20260508014018 13 63 0.0 6.4 0.00 0.71 0.61 72 1014.6
20260508013516 13 32 1.6 6.4 0.00 0.71 0.61 71 1014.6
20260508013014 13 359 1.6 9.7 0.00 0.71 0.61 70 1014.6
20260508012512 13 13 1.6 9.7 0.00 0.71 0.61 68 1014.4
20260508012011 14 20 4.8 9.7 0.00 0.71 0.61 67 1014.3
20260508011511 14 36 6.4 11.3 0.00 0.71 0.61 67 1014.4
20260508011008 14 342 3.2 11.3 0.00 0.71 0.61 67 1014.2
20260508010507 14 55 3.2 14.5 0.00 0.71 0.61 67 1014.2
20260508010008 14 23 6.4 14.5 0.00 0.97 0.61 67 1014.2
20260508005504 14 23 6.4 14.5 0.00 0.97 0.61 66 1014.0
20260508005004 14 350 6.4 14.5 0.00 0.97 0.61 66 1014.0
20260508004502 14 346 8.0 14.5 0.00 0.97 0.61 66 1013.9
20260508004101 14 358 6.4 14.5 0.00 0.97 0.61 66 1013.7
20260508003603 14 9 6.4 16.1 0.00 0.97 0.61 66 1013.7
20260508003100 15 25 8.0 16.1 0.00 0.97 0.61 67 1013.6
20260508002558 15 27 8.0 22.5 0.00 0.97 0.61 66 1013.4
20260508002057 15 37 8.0 22.5 0.00 0.97 0.61 66 1013.4
20260508001559 15 347 9.7 20.9 0.00 0.97 0.61 66 1013.4
20260508001056 15 343 8.0 32.2 0.00 0.97 0.61 67 1013.3
20260508000557 15 335 11.3 19.3 0.00 0.97 0.61 67 1013.1
20260508000057 15 320 12.9 19.3 0.00 1.14 0.61 67 1013.1
20260507235550 15 23 11.3 19.3 0.00 1.14 0.61 67 1013.1
20260507235048 16 337 8.0 14.5 0.00 1.14 0.61 67 1013.1
20260507234554 16 346 3.2 20.9 0.00 1.14 0.61 68 1013.2
20260507234046 16 10 6.4 20.9 0.00 1.14 0.61 67 1013.1
20260507233545 16 351 8.0 16.1 0.00 1.14 0.61 67 1013.2
20260507233108 16 38 8.0 20.9 0.00 1.14 0.61 68 1012.9
20260507232545 16 56 9.7 27.4 0.00 1.14 0.61 68 1012.7
20260507232047 16 3 12.9 27.4 0.00 1.14 0.61 67 1012.7
20260507231542 16 340 9.7 22.5 0.00 1.14 0.61 68 1012.8
20260507231041 16 13 12.9 22.5 0.00 1.14 0.61 67 1012.6
20260507230541 16 325 6.4 22.5 0.00 1.14 0.61 68 1012.6
20260507230045 16 3 4.8 25.7 0.00 1.17 0.61 68 1012.7
20260507225539 16 352 9.7 32.2 0.00 1.17 0.61 68 1012.6
20260507225039 16 327 17.7 32.2 0.00 1.17 0.61 68 1012.5
20260507224538 16 15 16.1 37.0 0.00 1.17 0.61 68 1012.4
20260507224036 16 328 17.7 37.0 0.00 1.17 0.61 68 1012.3
20260507223535 17 5 17.7 32.2 0.00 1.17 0.61 68 1012.2
20260507223041 17 305 19.3 37.0 0.00 1.17 0.61 68 1012.0
20260507222534 17 271 19.3 37.0 0.00 1.17 0.61 68 1011.9
20260507222032 17 25 16.1 37.0 0.00 1.17 0.61 69 1011.8
20260507221534 17 36 19.3 38.6 0.00 1.17 0.61 69 1011.6
20260507221029 17 339 27.4 38.6 0.00 1.17 0.61 68 1011.5
20260507220526 18 355 17.7 41.8 0.00 1.17 0.61 68 1011.3
20260507220034 18 340 25.7 41.8 0.00 1.17 0.61 68 1011.1
20260507215525 18 314 16.1 33.8 0.00 1.17 0.61 68 1011.0
20260507215024 18 351 20.9 35.4 0.00 1.17 0.61 67 1010.8
20260507214524 19 352 22.5 35.4 0.00 1.17 0.61 66 1010.8
20260507214022 19 18 19.3 32.2 0.00 1.17 0.61 66 1010.7
20260507213521 20 354 17.7 27.4 0.00 1.17 0.61 66 1010.6
20260507213027 20 349 16.1 22.5 0.00 1.17 0.61 67 1010.6
20260507212520 19 29 9.7 25.7 0.00 1.17 0.61 67 1010.5
20260507212019 19 346 14.5 25.7 0.00 1.17 0.61 67 1010.6
20260507211519 20 34 6.4 20.9 0.00 1.17 0.61 67 1010.4
20260507211012 20 131 3.2 16.1 0.00 1.17 0.61 67 1010.3
20260507210512 20 112 3.2 16.1 0.00 1.17 0.61 67 1010.2